Location: Beacon Field Observatory
(38.7700°N, 77.0829°W)
Time: 20:30:30
(UTC-05:00)

UKube-1 - Pass Details

Date: 09 December 2019
Orbit: 614 x 618 km, 98.5° (Epoch: 23 January)

Event Time Altitude Azimuth Distance (km) Brightness Sun altitude
Rises 05:42:27 0° 200° (SSW) 2,866 ? -17.4°
Reaches altitude 10° 05:45:06 10° 217° (SW) 1,967 ? -16.9°
Enters shadow 05:46:33 16° 234° (SW) 1,603 ? -16.7°
